• In Belarus
  • List of Countries
  • For 7 days
  • Water Temperature
  • Satellite Maps
  • Weather Map
  • Weather Widgets
  • user-avatar
    Login

    Hourly Weather Sharan

    Today, 19 August, Sunday

    Time Temperature Precipitation Wind Pressure Humidity
    00:00 +25°C° 0 mm 4 mps 586 mmHg 49%
    01:00 +24°C° 0 mm 3 mps 586 mmHg 55%
    02:00 +24°C° 0 mm 3 mps 586 mmHg 62%
    03:00 +23°C° 0 mm 2 mps 586 mmHg 63%
    04:00 +23°C° 0 mm 2 mps 586 mmHg 65%
    05:00 +22°C° 0 mm 1 mps 586 mmHg 66%
    06:00 +23°C° 0 mm 1 mps 586 mmHg 62%
    07:00 +23°C° 0 mm 1 mps 586 mmHg 58%
    08:00 +24°C° 0 mm 1 mps 587 mmHg 54%
    09:00 +25°C° 0 mm 1 mps 587 mmHg 46%
    10:00 +26°C° 0 mm 1 mps 587 mmHg 37%
    11:00 +28°C° 0 mm 1 mps 588 mmHg 28%
    12:00 +29°C° 0 mm 1 mps 588 mmHg 24%
    13:00 +30°C° 0 mm 2 mps 588 mmHg 19%
    14:00 +33°C° 0 mm 3 mps 588 mmHg 15%
    15:00 +33°C° 0 mm 3 mps 588 mmHg 14%
    16:00 +33°C° 0 mm 3 mps 587 mmHg 13%
    17:00 +34°C° 0 mm 4 mps 587 mmHg 12%
    18:00 +33°C° 0 mm 4 mps 587 mmHg 14%
    19:00 +32°C° 0 mm 4 mps 587 mmHg 15%
    20:00 +30°C° 0 mm 4 mps 587 mmHg 16%
    21:00 +29°C° 0 mm 3 mps 587 mmHg 20%
    22:00 +28°C° 0 mm 3 mps 586 mmHg 24%
    23:00 +27°C° 0 mm 3 mps 586 mmHg 28%

    Tomorrow, 20 August, Monday

    Time Temperature Precipitation Wind Pressure Humidity
    00:00 +26°C° 0 mm 3 mps 586 mmHg 32%
    01:00 +25°C° 0 mm 2 mps 586 mmHg 37%
    02:00 +24°C° 0 mm 2 mps 586 mmHg 41%
    03:00 +24°C° 0 mm 2 mps 585 mmHg 43%
    04:00 +23°C° 0 mm 2 mps 585 mmHg 45%
    05:00 +23°C° 0 mm 2 mps 585 mmHg 47%
    06:00 +23°C° 0 mm 2 mps 586 mmHg 44%
    07:00 +24°C° 0 mm 2 mps 587 mmHg 40%
    08:00 +25°C° 0 mm 2 mps 587 mmHg 37%
    09:00 +26°C° 0 mm 2 mps 588 mmHg 29%
    10:00 +28°C° 0 mm 2 mps 589 mmHg 21%
    11:00 +29°C° 0 mm 2 mps 589 mmHg 14%
    12:00 +30°C° 0 mm 2 mps 589 mmHg 11%
    13:00 +31°C° 0 mm 2 mps 589 mmHg 9%
    14:00 +32°C° 0 mm 2 mps 589 mmHg 7%
    15:00 +34°C° 0 mm 2 mps 589 mmHg 6%
    16:00 +34°C° 0 mm 2 mps 589 mmHg 6%
    17:00 +34°C° 0 mm 2 mps 589 mmHg 5%
    18:00 +32°C° 0 mm 2 mps 588 mmHg 8%
    19:00 +31°C° 0 mm 2 mps 588 mmHg 10%
    20:00 +29°C° 0 mm 2 mps 588 mmHg 12%
    21:00 +29°C° 0 mm 2 mps 588 mmHg 15%
    22:00 +28°C° 0 mm 2 mps 588 mmHg 18%
    23:00 +27°C° 0 mm 2 mps 588 mmHg 22%

    Day after tomorrow, 21 August, Tuesday

    Time Temperature Precipitation Wind Pressure Humidity
    00:00 +26°C° 0 mm 2 mps 587 mmHg 22%
    01:00 +25°C° 0 mm 2 mps 587 mmHg 23%
    02:00 +24°C° 0 mm 2 mps 586 mmHg 23%
    03:00 +24°C° 0 mm 2 mps 586 mmHg 21%
    04:00 +23°C° 0 mm 2 mps 586 mmHg 19%
    05:00 +21°C° 0 mm 3 mps 586 mmHg 17%
    06:00 +22°C° 0 mm 3 mps 586 mmHg 16%
    07:00 +24°C° 0 mm 3 mps 587 mmHg 14%
    08:00 +25°C° 0 mm 4 mps 587 mmHg 13%
    09:00 +26°C° 0 mm 3 mps 588 mmHg 11%
    10:00 +28°C° 0 mm 3 mps 588 mmHg 10%
    11:00 +30°C° 0 mm 3 mps 589 mmHg 8%
    12:00 +31°C° 0 mm 3 mps 589 mmHg 8%
    13:00 +31°C° 0 mm 2 mps 589 mmHg 7%
    14:00 +32°C° 0 mm 2 mps 588 mmHg 7%
    15:00 +34°C° 0 mm 2 mps 588 mmHg 6%
    16:00 +34°C° 0 mm 2 mps 588 mmHg 6%
    17:00 +34°C° 0 mm 2 mps 587 mmHg 6%
    18:00 +32°C° 0 mm 2 mps 587 mmHg 8%
    19:00 +31°C° 0 mm 2 mps 587 mmHg 10%
    20:00 +30°C° 0 mm 2 mps 587 mmHg 12%
    21:00 +29°C° 0 mm 2 mps 587 mmHg 17%
    22:00 +28°C° 0 mm 2 mps 587 mmHg 21%
    23:00 +27°C° 0 mm 3 mps 587 mmHg 26%

    22 August, Wednesday

    Time Temperature Precipitation Wind Pressure Humidity
    00:00 +26°C° 0 mm 2 mps 586 mmHg 28%
    01:00 +25°C° 0 mm 2 mps 586 mmHg 31%
    02:00 +25°C° 0 mm 2 mps 585 mmHg 34%
    03:00 +24°C° 0 mm 2 mps 585 mmHg 35%
    04:00 +24°C° 0 mm 2 mps 585 mmHg 36%
    05:00 +23°C° 0 mm 2 mps 585 mmHg 37%
    06:00 +24°C° 0 mm 2 mps 585 mmHg 34%
    07:00 +24°C° 0 mm 2 mps 586 mmHg 32%
    08:00 +25°C° 0 mm 2 mps 586 mmHg 30%
    09:00 +26°C° 0 mm 2 mps 587 mmHg 26%
    10:00 +28°C° 0 mm 1 mps 587 mmHg 23%
    11:00 +29°C° 0 mm 1 mps 588 mmHg 20%
    12:00 +30°C° 0 mm 2 mps 588 mmHg 18%
    13:00 +31°C° 0 mm 2 mps 588 mmHg 16%
    14:00 +33°C° 0 mm 3 mps 588 mmHg 14%
    15:00 +34°C° 0 mm 3 mps 587 mmHg 13%
    16:00 +34°C° 0 mm 3 mps 587 mmHg 13%
    17:00 +34°C° 0 mm 4 mps 587 mmHg 13%
    18:00 +33°C° 0 mm 4 mps 587 mmHg 17%
    19:00 +31°C° 0 mm 3 mps 587 mmHg 21%
    20:00 +30°C° 0 mm 3 mps 586 mmHg 25%
    21:00 +29°C° 0 mm 4 mps 586 mmHg 32%
    22:00 +28°C° 0 mm 4 mps 586 mmHg 39%
    23:00 +27°C° 0 mm 4 mps 586 mmHg 46%

    23 August, Thursday

    Time Temperature Precipitation Wind Pressure Humidity
    00:00 +26°C° 0 mm 4 mps 586 mmHg 48%
    01:00 +26°C° 0 mm 3 mps 586 mmHg 49%
    02:00 +25°C° 0 mm 2 mps 585 mmHg 51%
    03:00 +25°C° 0 mm 2 mps 585 mmHg 51%
    04:00 +24°C° 0 mm 2 mps 585 mmHg 50%
    05:00 +24°C° 0 mm 2 mps 585 mmHg 50%
    06:00 +24°C° 0 mm 2 mps 585 mmHg 47%
    07:00 +25°C° 0 mm 2 mps 586 mmHg 44%
    08:00 +25°C° 0 mm 2 mps 586 mmHg 41%
    09:00 +26°C° 0 mm 1 mps 587 mmHg 37%
    10:00 +27°C° 0 mm 1 mps 587 mmHg 33%
    11:00 +29°C° 0 mm 1 mps 587 mmHg 29%
    12:00 +30°C° 0 mm 1 mps 587 mmHg 26%
    13:00 +31°C° 0 mm 2 mps 587 mmHg 22%
    14:00 +32°C° 0 mm 2 mps 587 mmHg 19%
    15:00 +33°C° 0 mm 3 mps 587 mmHg 19%
    16:00 +33°C° 0 mm 3 mps 587 mmHg 18%
    17:00 +33°C° 0 mm 3 mps 587 mmHg 18%
    18:00 +32°C° 0 mm 4 mps 586 mmHg 21%
    19:00 +32°C° 0 mm 4 mps 586 mmHg 24%
    20:00 +30°C° 0 mm 5 mps 586 mmHg 26%
    21:00 +29°C° 0.1 mm 5 mps 586 mmHg 30%
    22:00 +28°C° 0.1 mm 4 mps 586 mmHg 34%
    23:00 +27°C° 0.1 mm 4 mps 586 mmHg 38%

    24 August, Friday

    Time Temperature Precipitation Wind Pressure Humidity
    00:00 +26°C° 0 mm 3 mps 586 mmHg 41%
    01:00 +25°C° 0 mm 3 mps 586 mmHg 44%
    02:00 +24°C° 0 mm 2 mps 585 mmHg 47%
    03:00 +24°C° 0 mm 2 mps 585 mmHg 47%
    04:00 +23°C° 0 mm 2 mps 585 mmHg 47%
    05:00 +23°C° 0 mm 2 mps 585 mmHg 47%
    06:00 +23°C° 0 mm 2 mps 585 mmHg 44%
    07:00 +24°C° 0 mm 3 mps 586 mmHg 41%
    08:00 +24°C° 0 mm 3 mps 586 mmHg 39%
    09:00 +25°C° 0 mm 2 mps 586 mmHg 36%
    10:00 +27°C° 0 mm 2 mps 587 mmHg 33%
    11:00 +28°C° 0 mm 1 mps 587 mmHg 30%
    12:00 +29°C° 0.1 mm 2 mps 587 mmHg 27%
    13:00 +29°C° 0.1 mm 2 mps 587 mmHg 24%
    14:00 +30°C° 0.1 mm 2 mps 587 mmHg 21%
    15:00 +31°C° 0.1 mm 3 mps 586 mmHg 20%
    16:00 +31°C° 0.1 mm 3 mps 586 mmHg 19%
    17:00 +32°C° 0.1 mm 4 mps 586 mmHg 18%
    18:00 +30°C° 0 mm 4 mps 586 mmHg 21%
    19:00 +29°C° 0 mm 5 mps 586 mmHg 23%
    20:00 +28°C° 0 mm 5 mps 586 mmHg 26%
    21:00 +27°C° 0.1 mm 5 mps 586 mmHg 29%
    22:00 +26°C° 0.1 mm 4 mps 586 mmHg 32%
    23:00 +26°C° 0.1 mm 4 mps 586 mmHg 35%
    Show more